Minot AFB, ND

1:42 PM CST on December 14, 2019 (GMT -0600)
Minot Air Force Base

Weather History for KMIB - November, 2019

Change the Weather History Date:

Tuesday, November 12, 2019

  Actual Average Record
Temperature  
Mean Temperature 17 °F -  
Max Temperature 30 °F 34 °F 73 °F (1999)
Min Temperature 4 °F 16 °F -4 °F (1998)
Degree Days  
Heating Degree Days 48    
Moisture  
Dew Point 15 °F    
Average Humidity 75    
Maximum Humidity 83    
Minimum Humidity 62    
Precipitation  
Precipitation 0.00 in - - ()
Sea Level Pressure  
Sea Level Pressure 29.94 in    
Wind  
Wind Speed 8 mph (WSW)    
Max Wind Speed 15 mph    
Max Gust Speed -    
Visibility 10 miles    
Events Snow    
Averages and records for this station are not official NWS values.
T = Trace of Precipitation, MM = Missing Value Source: NWS Daily Summary

Daily Weather History Graph

Daily Weather History Graph

Search for Another Location

Airport or City:

Astronomy

Nov. 12, 2019 Rise Set
Actual Time 7:48 AM CST 5:10 PM CST
Civil Twilight 7:14 AM CST 5:44 PM CST
Nautical Twilight 6:36 AM CST 6:21 PM CST
Astronomical Twilight 5:59 AM CST 6:58 PM CST
Moon 5:40 PM CST (11/12) 7:37 AM CST (11/12)
Length of Visible Light 10h 29m
Length of Day
9h 22m
Full, 100% of the Moon is Illuminated
Nov 12
Full
Nov 19
Last Quarter
Nov 26
New
Dec 4
First Quarter
Dec 11
Full

Hourly Weather History & Observations

Time (CST) Temp. Windchill Dew Point Humidity Pressure Visibility Wind Dir Wind Speed Gust Speed Precip Events Conditions
12:56 AM 5.4 °F -8.6 °F 1.0 °F 82% 30.39 in 10.0 mi SSE 9.2 mph - N/A   Clear
1:56 AM 4.5 °F -4.7 °F 0.3 °F 83% 30.35 in 10.0 mi SE 4.6 mph - N/A   Clear
3:56 AM 4.3 °F -10.0 °F 0.1 °F 83% 30.23 in 10.0 mi SSE 9.2 mph - N/A   Clear
4:56 AM 8.8 °F -7.5 °F 3.6 °F 79% 30.17 in 10.0 mi South 13.8 mph - N/A   Mostly Cloudy
5:56 AM 11.8 °F -4.2 °F 5.4 °F 75% 30.12 in 10.0 mi South 15.0 mph - N/A   Scattered Clouds
6:56 AM 12.0 °F -2.7 °F 5.0 °F 73% 30.06 in 10.0 mi South 12.7 mph - N/A   Mostly Cloudy
7:56 AM 12.0 °F -2.0 °F 4.5 °F 72% 30.02 in 10.0 mi South 11.5 mph - N/A   Clear
8:56 AM 13.3 °F 1.1 °F 5.5 °F 71% 29.99 in 10.0 mi South 9.2 mph - N/A   Clear
9:56 AM 17.4 °F 8.0 °F 8.2 °F 67% 29.97 in 10.0 mi SSW 6.9 mph - N/A   Partly Cloudy
10:56 AM 21.4 °F 10.4 °F 10.8 °F 64% 29.96 in 10.0 mi WSW 10.4 mph - N/A   Clear
12:56 PM 26.1 °F 17.6 °F 15.6 °F 65% 29.89 in 10.0 mi West 8.1 mph - N/A   Scattered Clouds
1:56 PM 27.0 °F 23.0 °F 15.6 °F 62% 29.87 in 10.0 mi West 3.5 mph - N/A   Scattered Clouds
2:56 PM 27.5 °F 19.3 °F 17.2 °F 65% 29.87 in 10.0 mi West 8.1 mph - N/A   Scattered Clouds
3:56 PM 27.9 °F 19.8 °F 18.7 °F 68% 29.85 in 10.0 mi WSW 8.1 mph - N/A   Clear
4:56 PM 28.0 °F - 20.1 °F 72% 29.84 in 10.0 mi Calm Calm - N/A   Clear
5:56 PM 28.0 °F - 21.4 °F 76% 29.82 in 10.0 mi Calm Calm - N/A   Partly Cloudy
6:56 PM 28.0 °F 24.2 °F 22.1 °F 78% 29.84 in 10.0 mi West 3.5 mph - N/A   Mostly Cloudy
7:56 PM 27.9 °F 24.0 °F 22.8 °F 81% 29.84 in 10.0 mi West 3.5 mph - N/A   Scattered Clouds
8:56 PM 28.8 °F 23.7 °F 22.8 °F 78% 29.73 in 10.0 mi West 4.6 mph - N/A   Mostly Cloudy
9:56 PM 29.5 °F 21.8 °F 22.8 °F 76% 29.73 in 10.0 mi West 8.1 mph - N/A   Mostly Cloudy
10:55 PM 30.2 °F 23.4 °F 23.0 °F 75% 29.74 in 10.0 mi WNW 6.9 mph - N/A   Overcast
10:56 PM 29.7 °F 22.8 °F 23.4 °F 77% 29.73 in 10.0 mi WNW 6.9 mph - N/A Snow Light Snow
11:07 PM 30.2 °F 22.6 °F 24.8 °F 80% 29.73 in 9.0 mi WNW 8.1 mph - N/A   Overcast
11:51 PM 30.2 °F 21.9 °F 24.8 °F 80% 29.82 in 10.0 mi West 9.2 mph - N/A Snow Light Snow
11:56 PM 29.8 °F 20.9 °F 25.0 °F 82% 29.82 in 10.0 mi West 10.4 mph - 0.00 in Snow Light Snow